QPF
0.00 0.00 0.00 0.00 0.00 0.00 0.00 0.00 0.00 0.00 0.00 0.00 0.00 0.00 0.00 0.00 0.00 0.00 0.00 0.00 0.00 0.00 0.00 0.00 0.00 0.00 0.00 0.00 0.00 0.00 0.00 0.00 0.00 0.00 0.00 0.00 0.00 0.00 0.00 0.01 0.01 0.01 0.01 0.01
0.00 0.00 0.00 0.00 0.00 0.00 0.00 0.00 0.00 0.00 0.00 0.00 0.00 0.00 0.00 0.00 0.00 0.00 0.00 0.00 0.00 0.00 0.00 0.00 0.00 0.00 0.00 0.00 0.00 0.00 0.00 0.00 0.00 0.00 0.00 0.00 0.00 0.00 0.01 0.01 0.01 0.01 0.01 0.01
0.00 0.00 0.00 0.00 0.00 0.00 0.00 0.00 0.00 0.00 0.00 0.00 0.00 0.00 0.00 0.00 0.00 0.00 0.00 0.00 0.00 0.00 0.00 0.00 0.00 0.00 0.00 0.00 0.00 0.00 0.00 0.00 0.00 0.00 0.00 0.00 0.00 0.01 0.01 0.01 0.01 0.01 0.01 0.01
0.00 0.00 0.00 0.00 0.00 0.00 0.00 0.00 0.00 0.00 0.00 0.00 0.00 0.00 0.00 0.00 0.00 0.00 0.00 0.00 0.00 0.00 0.00 0.00 0.00 0.00 0.00 0.00 0.00 0.00 0.00 0.00 0.00 0.00 0.00 0.00 0.00 0.01 0.01 0.01 0.01 0.01 0.01 0.01
0.00 0.00 0.00 0.00 0.00 0.00 0.00 0.00 0.00 0.00 0.00 0.00 0.00 0.00 0.00 0.00 0.00 0.00 0.00 0.00 0.00 0.00 0.00 0.00 0.00 0.00 0.00 0.00 0.00 0.00 0.00 0.00 0.00 0.00 0.00 0.00 0.01 0.01 0.01 0.01 0.01 0.01 0.01 0.01
0.00 0.00 0.00 0.00 0.00 0.00 0.00 0.00 0.00 0.00 0.00 0.00 0.00 0.00 0.00 0.00 0.00 0.00 0.00 0.00 0.00 0.00 0.00 0.00 0.00 0.00 0.00 0.00 0.00 0.00 0.00 0.00 0.00 0.00 0.00 0.00 0.01 0.01 0.01 0.01 0.01 0.01 0.01 0.01
0.00 0.00 0.00 0.00 0.00 0.00 0.00 0.00 0.00 0.00 0.00 0.00 0.00 0.00 0.00 0.00 0.00 0.00 0.00 0.00 0.00 0.00 0.00 0.00 0.00 0.00 0.00 0.00 0.00 0.00 0.00 0.00 0.00 0.00 0.00 0.00 0.01 0.01 0.01 0.01 0.01 0.01 0.01 0.01
0.00 0.00 0.00 0.00 0.00 0.00 0.00 0.00 0.00 0.00 0.00 0.00 0.00 0.00 0.00 0.00 0.00 0.00 0.00 0.00 0.00 0.00 0.00 0.00 0.00 0.00 0.00 0.00 0.00 0.00 0.00 0.00 0.00 0.00 0.00 0.00 0.00 0.01 0.01 0.01 0.01 0.01 0.01 0.01
0.00 0.00 0.00 0.00 0.00 0.00 0.00 0.00 0.00 0.00 0.00 0.00 0.00 0.00 0.00 0.00 0.00 0.00 0.00 0.00 0.00 0.00 0.00 0.00 0.00 0.00 0.00 0.00 0.00 0.00 0.00 0.00 0.00 0.00 0.00 0.00 0.00 0.01 0.01 0.01 0.01 0.01 0.01 0.01
0.00 0.00 0.00 0.00 0.00 0.00 0.00 0.00 0.00 0.00 0.00 0.00 0.00 0.00 0.00 0.00 0.00 0.00 0.00 0.00 0.00 0.00 0.00 0.00 0.00 0.00 0.00 0.00 0.00 0.00 0.00 0.00 0.00 0.00 0.00 0.00 0.00 0.01 0.01 0.01 0.01 0.01 0.01 0.01
0.00 0.00 0.00 0.00 0.00 0.00 0.00 0.00 0.00 0.00 0.00 0.00 0.00 0.00 0.00 0.00 0.00 0.00 0.00 0.00 0.00 0.00 0.00 0.00 0.00 0.00 0.00 0.00 0.00 0.00 0.00 0.00 0.00 0.00 0.00 0.00 0.00 0.01 0.01 0.01 0.01 0.01 0.01 0.01
0.00 0.00 0.00 0.00 0.00 0.00 0.00 0.00 0.00 0.00 0.00 0.00 0.00 0.00 0.00 0.00 0.00 0.00 0.00 0.00 0.00 0.00 0.00 0.00 0.00 0.00 0.00 0.00 0.00 0.00 0.00 0.00 0.00 0.00 0.00 0.00 0.00 0.01 0.01 0.01 0.01 0.01 0.01 0.01
0.00 0.00 0.00 0.00 0.00 0.00 0.00 0.00 0.00 0.00 0.00 0.00 0.00 0.00 0.00 0.00 0.00 0.00 0.00 0.00 0.00 0.00 0.00 0.00 0.00 0.00 0.00 0.00 0.00 0.00 0.00 0.00 0.00 0.00 0.00 0.00 0.00 0.01 0.01 0.01 0.01 0.01 0.01 0.01
0.00 0.00 0.00 0.00 0.00 0.00 0.00 0.00 0.00 0.00 0.00 0.00 0.00 0.00 0.00 0.00 0.00 0.00 0.00 0.00 0.00 0.00 0.00 0.00 0.00 0.00 0.00 0.00 0.00 0.00 0.00 0.00 0.00 0.00 0.00 0.00 0.01 0.01 0.01 0.01 0.01 0.01 0.01 0.01
0.00 0.00 0.00 0.00 0.00 0.00 0.00 0.00 0.00 0.00 0.00 0.00 0.00 0.00 0.00 0.00 0.00 0.00 0.00 0.00 0.00 0.00 0.00 0.00 0.00 0.00 0.00 0.00 0.00 0.00 0.00 0.00 0.00 0.00 0.01 0.01 0.01 0.01 0.01 0.01 0.01 0.01 0.01 0.01
0.00 0.00 0.00 0.00 0.00 0.00 0.00 0.00 0.00 0.00 0.00 0.00 0.00 0.00 0.00 0.00 0.00 0.00 0.00 0.00 0.00 0.00 0.00 0.00 0.00 0.00 0.00 0.00 0.00 0.00 0.00 0.00 0.01 0.01 0.01 0.01 0.00 0.01 0.01 0.01 0.01 0.01 0.01 0.01
0.00 0.00 0.00 0.00 0.00 0.00 0.00 0.00 0.00 0.00 0.00 0.00 0.00 0.00 0.00 0.00 0.00 0.00 0.00 0.00 0.00 0.00 0.00 0.00 0.00 0.00 0.00 0.00 0.00 0.00 0.01 0.01 0.01 0.01 0.00 0.00 0.00 0.01 0.01 0.01 0.01 0.01 0.01 0.01
0.00 0.00 0.00 0.00 0.00 0.00 0.00 0.00 0.00 0.00 0.00 0.00 0.00 0.00 0.00 0.00 0.00 0.00 0.00 0.00 0.00 0.00 0.00 0.00 0.00 0.00 0.00 0.00 0.00 0.01 0.01 0.01 0.01 0.01 0.00 0.00 0.01 0.01 0.01 0.01 0.01 0.01 0.01 0.01
0.00 0.00 0.00 0.00 0.00 0.00 0.00 0.00 0.00 0.00 0.00 0.00 0.00 0.00 0.00 0.00 0.00 0.00 0.00 0.00 0.00 0.00 0.00 0.00 0.00 0.00 0.00 0.00 0.01 0.01 0.01 0.01 0.01 0.01 0.01 0.01 0.01 0.01 0.01 0.01 0.01 0.01 0.01 0.01
0.00 0.00 0.00 0.00 0.00 0.00 0.00 0.00 0.00 0.00 0.00 0.00 0.00 0.00 0.00 0.00 0.00 0.00 0.00 0.00 0.00 0.00 0.00 0.00 0.00 0.00 0.00 0.00 0.01 0.01 0.01 0.01 0.01 0.01 0.01 0.01 0.02 0.02 0.02 0.02 0.01 0.01 0.01 0.01
0.00 0.00 0.00 0.00 0.00 0.00 0.00 0.00 0.00 0.00 0.00 0.00 0.00 0.00 0.00 0.00 0.00 0.00 0.00 0.00 0.00 0.00 0.00 0.00 0.00 0.00 0.01 0.01 0.01 0.01 0.01 0.01 0.01 0.01 0.01 0.02 0.02 0.03 0.03 0.02 0.02 0.02 0.01 0.01
0.00 0.00 0.00 0.00 0.00 0.00 0.00 0.00 0.00 0.00 0.00 0.00 0.00 0.00 0.00 0.00 0.00 0.00 0.00 0.00 0.00 0.00 0.00 0.00 0.00 0.01 0.01 0.01 0.01 0.01 0.01 0.02 0.02 0.02 0.02 0.03 0.03 0.03 0.03 0.03 0.02 0.02 0.01 0.01
0.00 0.00 0.00 0.00 0.00 0.00 0.00 0.00 0.00 0.00 0.00 0.00 0.00 0.00 0.00 0.00 0.00 0.00 0.00 0.00 0.00 0.00 0.00 0.00 0.00 0.01 0.02 0.02 0.02 0.02 0.02 0.03 0.03 0.03 0.03 0.04 0.04 0.04 0.03 0.03 0.03 0.02 0.01 0.01
0.00 0.00 0.00 0.00 0.00 0.00 0.00 0.00 0.00 0.00 0.00 0.00 0.00 0.00 0.00 0.00 0.00 0.00 0.00 0.00 0.00 0.00 0.00 0.00 0.01 0.02 0.03 0.03 0.03 0.03 0.04 0.04 0.04 0.04 0.05 0.05 0.05 0.04 0.04 0.04 0.03 0.02 0.02 0.01
0.00 0.00 0.00 0.00 0.00 0.00 0.00 0.00 0.00 0.00 0.00 0.00 0.00 0.00 0.00 0.00 0.00 0.00 0.00 0.00 0.00 0.00 0.00 0.01 0.02 0.03 0.03 0.04 0.04 0.05 0.05 0.05 0.05 0.05 0.06 0.05 0.05 0.04 0.04 0.04 0.03 0.02 0.02 0.01
0.00 0.00 0.00 0.00 0.00 0.00 0.00 0.00 0.00 0.00 0.00 0.00 0.00 0.00 0.00 0.00 0.00 0.00 0.00 0.00 0.00 0.01 0.01 0.02 0.03 0.03 0.04 0.04 0.04 0.05 0.05 0.05 0.06 0.06 0.06 0.05 0.05 0.05 0.04 0.04 0.03 0.02 0.02 0.01
0.00 0.00 0.00 0.00 0.00 0.00 0.00 0.00 0.00 0.00 0.00 0.00 0.00 0.00 0.00 0.00 0.00 0.00 0.00 0.00 0.00 0.01 0.01 0.02 0.03 0.04 0.04 0.04 0.04 0.04 0.05 0.05 0.06 0.06 0.06 0.05 0.05 0.04 0.04 0.03 0.03 0.02 0.01 0.01
MSLP
1020.31 1020.21 1020.03 1019.74 1019.31 1018.73 1017.99 1017.09 1016.05 1014.92 1013.76 1012.61 1011.53 1010.58 1009.76 1009.11 1008.60 1008.21 1007.93 1007.73 1007.58 1007.48 1007.43 1007.44 1007.52 1007.67 1007.90 1008.19 1008.54 1008.91 1009.28 1009.64 1009.99 1010.32 1010.65 1011.01 1011.42 1011.89 1012.43 1013.05 1013.72 1014.42 1015.12 1015.77
1020.22 1019.93 1019.51 1018.96 1018.28 1017.48 1016.59 1015.63 1014.62 1013.62 1012.65 1011.74 1010.93 1010.23 1009.63 1009.13 1008.71 1008.34 1008.02 1007.74 1007.48 1007.27 1007.11 1007.02 1007.02 1007.10 1007.27 1007.51 1007.81 1008.12 1008.45 1008.76 1009.07 1009.36 1009.67 1010.01 1010.40 1010.86 1011.39 1011.99 1012.64 1013.32 1013.99 1014.62
1020.06 1019.58 1018.94 1018.16 1017.28 1016.32 1015.32 1014.34 1013.40 1012.53 1011.75 1011.08 1010.51 1010.03 1009.61 1009.23 1008.87 1008.51 1008.14 1007.76 1007.40 1007.07 1006.80 1006.60 1006.51 1006.51 1006.60 1006.77 1007.00 1007.26 1007.53 1007.80 1008.07 1008.34 1008.64 1008.98 1009.37 1009.84 1010.37 1010.97 1011.60 1012.26 1012.89 1013.49
1019.81 1019.16 1018.34 1017.39 1016.36 1015.30 1014.26 1013.29 1012.43 1011.70 1011.10 1010.63 1010.26 1009.95 1009.66 1009.37 1009.04 1008.66 1008.23 1007.76 1007.30 1006.86 1006.47 1006.18 1005.98 1005.89 1005.90 1005.99 1006.14 1006.33 1006.54 1006.77 1007.01 1007.27 1007.58 1007.93 1008.35 1008.84 1009.39 1009.99 1010.62 1011.24 1011.85 1012.40
1019.46 1018.66 1017.71 1016.65 1015.54 1014.43 1013.40 1012.48 1011.71 1011.11 1010.66 1010.34 1010.11 1009.92 1009.71 1009.46 1009.13 1008.72 1008.23 1007.69 1007.14 1006.60 1006.13 1005.74 1005.46 1005.28 1005.20 1005.21 1005.28 1005.40 1005.55 1005.73 1005.95 1006.20 1006.52 1006.90 1007.36 1007.88 1008.45 1009.06 1009.68 1010.29 1010.86 1011.37
1018.95 1018.06 1017.03 1015.92 1014.79 1013.71 1012.72 1011.88 1011.21 1010.72 1010.39 1010.17 1010.02 1009.89 1009.71 1009.47 1009.12 1008.66 1008.13 1007.53 1006.91 1006.31 1005.78 1005.32 1004.97 1004.71 1004.55 1004.48 1004.46 1004.50 1004.59 1004.73 1004.92 1005.18 1005.51 1005.93 1006.42 1006.97 1007.57 1008.19 1008.80 1009.38 1009.90 1010.36
1018.26 1017.32 1016.27 1015.18 1014.09 1013.07 1012.18 1011.44 1010.87 1010.47 1010.21 1010.05 1009.94 1009.82 1009.63 1009.36 1008.98 1008.49 1007.92 1007.28 1006.64 1006.01 1005.44 1004.95 1004.54 1004.22 1003.99 1003.84 1003.74 1003.71 1003.74 1003.83 1003.99 1004.24 1004.59 1005.02 1005.54 1006.11 1006.72 1007.34 1007.93 1008.47 1008.95 1009.36
1017.37 1016.42 1015.41 1014.39 1013.40 1012.50 1011.73 1011.10 1010.64 1010.31 1010.10 1009.97 1009.85 1009.70 1009.48 1009.17 1008.75 1008.23 1007.64 1007.00 1006.35 1005.72 1005.14 1004.63 1004.20 1003.84 1003.54 1003.32 1003.15 1003.05 1003.01 1003.05 1003.18 1003.42 1003.76 1004.20 1004.72 1005.30 1005.90 1006.50 1007.05 1007.55 1007.98 1008.33
1016.29 1015.38 1014.46 1013.56 1012.72 1011.98 1011.35 1010.85 1010.49 1010.23 1010.04 1009.90 1009.75 1009.56 1009.29 1008.93 1008.48 1007.94 1007.34 1006.72 1006.09 1005.48 1004.92 1004.41 1003.95 1003.56 1003.22 1002.92 1002.69 1002.51 1002.41 1002.41 1002.50 1002.71 1003.03 1003.46 1003.96 1004.52 1005.09 1005.64 1006.15 1006.60 1006.97 1007.28
1015.06 1014.24 1013.46 1012.72 1012.06 1011.50 1011.04 1010.68 1010.41 1010.20 1010.04 1009.88 1009.69 1009.44 1009.11 1008.71 1008.23 1007.68 1007.09 1006.49 1005.89 1005.31 1004.76 1004.26 1003.79 1003.36 1002.97 1002.62 1002.32 1002.08 1001.92 1001.86 1001.92 1002.09 1002.38 1002.77 1003.24 1003.75 1004.28 1004.77 1005.22 1005.61 1005.93 1006.20
1013.78 1013.09 1012.47 1011.92 1011.47 1011.10 1010.81 1010.59 1010.41 1010.25 1010.10 1009.91 1009.67 1009.37 1008.99 1008.55 1008.04 1007.49 1006.91 1006.33 1005.75 1005.20 1004.66 1004.15 1003.67 1003.21 1002.76 1002.36 1002.00 1001.70 1001.49 1001.39 1001.40 1001.53 1001.78 1002.13 1002.55 1003.01 1003.47 1003.90 1004.29 1004.62 1004.90 1005.15
1012.55 1012.01 1011.57 1011.24 1010.99 1010.81 1010.69 1010.59 1010.50 1010.38 1010.23 1010.02 1009.73 1009.38 1008.95 1008.47 1007.94 1007.38 1006.81 1006.23 1005.67 1005.12 1004.58 1004.05 1003.53 1003.03 1002.54 1002.08 1001.66 1001.32 1001.07 1000.92 1000.90 1001.00 1001.21 1001.51 1001.88 1002.28 1002.67 1003.04 1003.37 1003.65 1003.91 1004.15
1011.47 1011.10 1010.86 1010.72 1010.66 1010.66 1010.68 1010.69 1010.66 1010.58 1010.41 1010.17 1009.84 1009.44 1008.97 1008.45 1007.89 1007.32 1006.74 1006.16 1005.59 1005.02 1004.46 1003.89 1003.33 1002.77 1002.23 1001.72 1001.26 1000.88 1000.60 1000.43 1000.39 1000.46 1000.64 1000.91 1001.23 1001.57 1001.90 1002.21 1002.49 1002.74 1002.98 1003.22
1010.62 1010.42 1010.36 1010.40 1010.51 1010.65 1010.78 1010.86 1010.87 1010.79 1010.61 1010.33 1009.96 1009.51 1008.99 1008.43 1007.85 1007.25 1006.66 1006.06 1005.46 1004.86 1004.25 1003.64 1003.03 1002.41 1001.82 1001.27 1000.78 1000.38 1000.08 999.91 999.85 999.91 1000.08 1000.31 1000.59 1000.89 1001.17 1001.44 1001.68 1001.90 1002.14 1002.40
1010.05 1010.00 1010.10 1010.28 1010.52 1010.75 1010.95 1011.06 1011.08 1010.98 1010.76 1010.44 1010.01 1009.51 1008.96 1008.36 1007.75 1007.13 1006.51 1005.87 1005.24 1004.60 1003.94 1003.27 1002.60 1001.94 1001.30 1000.72 1000.21 999.80 999.51 999.33 999.29 999.35 999.51 999.72 999.98 1000.23 1000.48 1000.71 1000.92 1001.14 1001.37 1001.65
1009.74 1009.83 1010.04 1010.32 1010.63 1010.91 1011.11 1011.22 1011.21 1011.07 1010.80 1010.42 1009.95 1009.40 1008.81 1008.18 1007.54 1006.89 1006.24 1005.58 1004.90 1004.21 1003.51 1002.79 1002.07 1001.36 1000.69 1000.09 999.58 999.17 998.89 998.74 998.71 998.78 998.93 999.14 999.37 999.60 999.82 1000.03 1000.22 1000.42 1000.66 1000.96
1009.66 1009.84 1010.12 1010.45 1010.78 1011.05 1011.22 1011.28 1011.21 1011.00 1010.67 1010.23 1009.71 1009.12 1008.50 1007.85 1007.19 1006.52 1005.84 1005.15 1004.44 1003.71 1002.96 1002.20 1001.44 1000.71 1000.02 999.42 998.91 998.52 998.26 998.13 998.11 998.20 998.35 998.55 998.77 998.98 999.18 999.36 999.54 999.74 999.98 1000.30
1009.73 1009.97 1010.27 1010.60 1010.89 1011.10 1011.21 1011.19 1011.03 1010.74 1010.34 1009.85 1009.28 1008.66 1008.01 1007.35 1006.68 1006.00 1005.31 1004.60 1003.86 1003.10 1002.32 1001.54 1000.75 1000.00 999.31 998.71 998.21 997.84 997.60 997.49 997.50 997.59 997.75 997.95 998.15 998.35 998.53 998.70 998.87 999.06 999.31 999.65
1009.86 1010.11 1010.39 1010.67 1010.89 1011.01 1011.02 1010.90 1010.65 1010.29 1009.82 1009.27 1008.67 1008.03 1007.37 1006.71 1006.03 1005.35 1004.65 1003.93 1003.18 1002.40 1001.60 1000.80 1000.01 999.25 998.56 997.96 997.48 997.13 996.91 996.82 996.84 996.94 997.10 997.30 997.49 997.68 997.85 998.02 998.19 998.39 998.66 999.00
1009.97 1010.20 1010.43 1010.62 1010.74 1010.76 1010.66 1010.44 1010.10 1009.66 1009.13 1008.55 1007.92 1007.28 1006.62 1005.96 1005.29 1004.61 1003.91 1003.18 1002.41 1001.62 1000.81 999.99 999.18 998.43 997.74 997.15 996.69 996.35 996.15 996.07 996.10 996.21 996.37 996.57 996.77 996.96 997.15 997.33 997.51 997.74 998.02 998.39
1010.02 1010.19 1010.34 1010.43 1010.44 1010.34 1010.13 1009.82 1009.40 1008.90 1008.34 1007.74 1007.10 1006.46 1005.81 1005.15 1004.48 1003.80 1003.09 1002.35 1001.56 1000.75 999.92 999.09 998.27 997.51 996.83 996.25 995.79 995.47 995.27 995.21 995.25 995.37 995.55 995.76 995.98 996.20 996.41 996.62 996.85 997.12 997.44 997.83
1009.97 1010.06 1010.11 1010.10 1009.99 1009.79 1009.49 1009.10 1008.63 1008.09 1007.51 1006.89 1006.27 1005.62 1004.98 1004.32 1003.65 1002.95 1002.22 1001.45 1000.64 999.80 998.94 998.08 997.25 996.48 995.79 995.22 994.77 994.46 994.28 994.23 994.28 994.43 994.63 994.87 995.14 995.40 995.67 995.94 996.23 996.56 996.94 997.38
1009.81 1009.82 1009.77 1009.65 1009.44 1009.15 1008.78 1008.33 1007.83 1007.27 1006.68 1006.07 1005.45 1004.82 1004.17 1003.50 1002.81 1002.08 1001.32 1000.50 999.65 998.76 997.86 996.97 996.12 995.34 994.65 994.07 993.63 993.34 993.18 993.15 993.24 993.41 993.66 993.95 994.27 994.61 994.95 995.30 995.68 996.08 996.53 997.04
1009.56 1009.47 1009.32 1009.11 1008.82 1008.47 1008.04 1007.56 1007.04 1006.48 1005.90 1005.29 1004.68 1004.04 1003.39 1002.70 1001.97 1001.20 1000.38 999.51 998.60 997.66 996.72 995.80 994.92 994.13 993.44 992.87 992.45 992.18 992.05 992.05 992.18 992.40 992.70 993.06 993.45 993.86 994.29 994.74 995.21 995.71 996.24 996.81
1009.21 1009.04 1008.81 1008.52 1008.17 1007.76 1007.30 1006.81 1006.28 1005.73 1005.15 1004.56 1003.94 1003.30 1002.62 1001.91 1001.13 1000.31 999.43 998.50 997.53 996.54 995.57 994.62 993.74 992.94 992.26 991.72 991.33 991.08 990.99 991.04 991.21 991.48 991.84 992.26 992.73 993.23 993.74 994.28 994.84 995.42 996.03 996.67
1008.78 1008.53 1008.23 1007.88 1007.49 1007.05 1006.57 1006.07 1005.55 1005.00 1004.44 1003.85 1003.23 1002.58 1001.87 1001.12 1000.30 999.42 998.49 997.51 996.50 995.48 994.48 993.53 992.66 991.88 991.23 990.73 990.38 990.19 990.14 990.24 990.46 990.78 991.19 991.66 992.19 992.75 993.34 993.95 994.58 995.23 995.90 996.58
1008.25 1007.95 1007.60 1007.20 1006.78 1006.32 1005.84 1005.34 1004.82 1004.29 1003.73 1003.14 1002.52 1001.84 1001.11 1000.32 999.47 998.55 997.58 996.58 995.55 994.53 993.55 992.63 991.79 991.07 990.48 990.04 989.75 989.61 989.62 989.76 990.02 990.38 990.82 991.33 991.88 992.48 993.10 993.75 994.42 995.10 995.80 996.51
Thickness
5598 5603 5597 5594 5597 5596 5589 5594 5591 5612 5616 5633 5636 5629 5627 5625 5621 5620 5620 5619 5618 5616 5614 5609 5602 5594 5587 5580 5572 5563 5555 5548 5544 5535 5525 5513 5502 5490 5478 5465 5452 5437 5422 5407
5588 5595 5589 5586 5596 5600 5599 5598 5597 5603 5611 5630 5621 5615 5611 5608 5605 5605 5605 5606 5606 5604 5602 5599 5594 5588 5581 5574 5566 5556 5549 5544 5536 5526 5516 5506 5496 5484 5471 5459 5446 5431 5417 5403
5577 5586 5581 5582 5604 5606 5603 5602 5597 5598 5612 5614 5607 5605 5601 5597 5595 5593 5593 5592 5592 5592 5590 5588 5585 5580 5574 5569 5559 5549 5542 5537 5528 5519 5509 5500 5488 5477 5466 5455 5441 5427 5413 5399
5549 5567 5565 5604 5612 5607 5602 5604 5601 5599 5600 5595 5591 5590 5586 5584 5583 5582 5581 5582 5581 5580 5579 5578 5575 5570 5565 5558 5549 5541 5535 5529 5521 5512 5503 5493 5482 5472 5462 5450 5437 5425 5410 5397
5535 5540 5564 5585 5599 5596 5588 5590 5597 5590 5586 5583 5580 5576 5579 5580 5576 5572 5570 5568 5568 5567 5565 5564 5562 5557 5552 5546 5539 5532 5527 5522 5514 5506 5497 5487 5478 5468 5457 5445 5433 5421 5407 5394
5526 5527 5549 5585 5595 5591 5582 5574 5586 5581 5576 5571 5565 5559 5568 5572 5567 5564 5562 5560 5557 5555 5552 5551 5550 5544 5539 5536 5531 5527 5523 5517 5509 5500 5491 5483 5475 5465 5453 5441 5429 5416 5403 5391
5522 5521 5554 5576 5577 5575 5561 5567 5573 5569 5563 5558 5552 5550 5556 5556 5553 5552 5550 5548 5545 5541 5538 5539 5537 5531 5527 5526 5525 5523 5517 5511 5503 5495 5486 5478 5468 5458 5446 5434 5422 5410 5398 5387
5514 5514 5543 5572 5564 5559 5561 5563 5558 5555 5552 5548 5546 5545 5544 5543 5541 5539 5537 5536 5533 5529 5527 5526 5523 5517 5516 5517 5518 5513 5508 5502 5496 5489 5480 5471 5460 5450 5439 5427 5415 5403 5392 5381
5537 5556 5567 5562 5558 5557 5552 5549 5548 5545 5543 5539 5537 5536 5535 5533 5530 5527 5524 5522 5520 5515 5514 5515 5512 5507 5505 5510 5507 5503 5498 5494 5488 5481 5472 5464 5453 5443 5431 5420 5410 5400 5388 5379
5540 5555 5554 5551 5546 5546 5544 5543 5542 5538 5534 5530 5527 5525 5521 5517 5515 5513 5511 5509 5507 5504 5503 5505 5504 5499 5497 5498 5496 5492 5489 5485 5479 5471 5463 5454 5446 5437 5427 5417 5407 5399 5388 5379
5539 5550 5547 5547 5542 5540 5538 5534 5532 5530 5525 5520 5516 5511 5507 5503 5502 5500 5498 5496 5494 5492 5492 5494 5494 5492 5491 5489 5486 5483 5480 5477 5470 5464 5456 5447 5440 5433 5425 5417 5408 5400 5392 5381
5543 5545 5536 5542 5536 5531 5527 5524 5521 5516 5513 5508 5503 5499 5495 5492 5491 5489 5488 5487 5484 5484 5483 5485 5484 5485 5484 5481 5477 5473 5471 5467 5461 5455 5447 5439 5431 5424 5420 5412 5404 5398 5390 5378
5536 5534 5528 5529 5524 5519 5515 5512 5507 5503 5499 5494 5490 5486 5483 5481 5480 5478 5477 5476 5475 5475 5475 5475 5475 5476 5475 5473 5469 5464 5462 5459 5453 5447 5440 5432 5424 5416 5409 5405 5399 5393 5386 5376
5515 5512 5513 5512 5508 5504 5500 5497 5492 5488 5483 5480 5477 5474 5471 5469 5468 5467 5467 5466 5466 5465 5465 5465 5465 5466 5466 5463 5459 5456 5453 5450 5446 5439 5432 5425 5417 5410 5404 5397 5391 5386 5381 5374
5500 5496 5496 5495 5491 5488 5485 5480 5476 5472 5470 5468 5465 5461 5459 5458 5458 5459 5459 5457 5456 5456 5457 5457 5456 5458 5456 5453 5450 5447 5443 5439 5435 5429 5422 5416 5409 5402 5395 5390 5385 5379 5372 5366
5486 5481 5479 5478 5476 5473 5470 5466 5461 5459 5457 5455 5453 5452 5451 5449 5449 5450 5449 5448 5446 5448 5448 5447 5448 5448 5446 5442 5440 5437 5433 5431 5426 5418 5411 5404 5398 5392 5386 5381 5377 5372 5366 5360
5469 5468 5468 5465 5462 5458 5454 5450 5447 5446 5444 5443 5443 5443 5441 5441 5442 5443 5443 5441 5438 5437 5437 5437 5439 5438 5435 5432 5428 5426 5422 5417 5415 5410 5400 5393 5387 5381 5377 5373 5369 5365 5360 5356
5459 5457 5455 5452 5446 5443 5441 5438 5436 5434 5433 5433 5433 5431 5431 5431 5433 5434 5433 5432 5431 5431 5430 5430 5429 5428 5425 5422 5418 5415 5410 5405 5399 5394 5389 5383 5376 5371 5367 5363 5361 5357 5352 5349
5446 5443 5439 5436 5433 5430 5428 5426 5425 5424 5424 5423 5422 5422 5421 5421 5421 5422 5422 5421 5420 5424 5427 5424 5423 5420 5416 5413 5411 5406 5400 5395 5389 5383 5378 5374 5369 5362 5358 5356 5353 5350 5346 5342
5430 5427 5424 5422 5420 5417 5416 5417 5416 5416 5415 5413 5412 5413 5413 5414 5413 5413 5413 5412 5413 5415 5417 5415 5413 5411 5409 5405 5402 5397 5391 5385 5379 5374 5368 5364 5360 5356 5352 5349 5346 5343 5340 5337
5415 5413 5411 5410 5410 5410 5408 5408 5407 5408 5407 5404 5403 5404 5406 5407 5405 5404 5405 5410 5413 5410 5409 5409 5406 5403 5400 5397 5395 5389 5382 5377 5371 5365 5360 5355 5352 5349 5346 5343 5341 5339 5336 5333
5403 5403 5403 5402 5402 5403 5402 5400 5399 5398 5398 5397 5397 5397 5398 5399 5400 5400 5399 5401 5406 5405 5404 5402 5399 5397 5394 5391 5386 5380 5374 5368 5363 5358 5352 5348 5345 5342 5340 5338 5336 5335 5332 5329
5395 5395 5394 5393 5393 5394 5393 5390 5390 5389 5390 5390 5391 5391 5392 5393 5393 5393 5400 5400 5398 5399 5398 5396 5393 5391 5388 5383 5377 5372 5367 5362 5357 5351 5347 5343 5340 5338 5336 5335 5333 5331 5328 5325
5387 5386 5384 5383 5382 5381 5383 5385 5384 5384 5384 5384 5385 5385 5385 5387 5390 5390 5391 5394 5394 5394 5393 5391 5389 5386 5382 5375 5369 5364 5359 5355 5350 5345 5341 5338 5335 5334 5332 5331 5330 5327 5325 5322
5376 5374 5373 5371 5371 5374 5376 5377 5377 5377 5378 5380 5381 5382 5382 5382 5383 5387 5387 5388 5389 5389 5388 5387 5384 5380 5374 5368 5362 5358 5353 5348 5344 5339 5336 5333 5332 5330 5329 5328 5326 5325 5323 5320
5367 5366 5365 5364 5364 5366 5367 5368 5370 5372 5374 5377 5380 5380 5380 5380 5380 5382 5383 5385 5384 5385 5383 5381 5378 5374 5368 5363 5358 5353 5349 5344 5341 5338 5335 5332 5329 5328 5327 5325 5324 5323 5321 5318
5358 5356 5356 5357 5359 5360 5360 5361 5363 5366 5368 5370 5373 5376 5376 5377 5377 5379 5380 5381 5381 5381 5380 5378 5374 5370 5365 5360 5355 5351 5347 5342 5339 5337 5334 5331 5328 5326 5325 5323 5322 5321 5319 5316